Regional Weather Roundup
Issued by NWS

Home | Current Version | Previous Version | Text Only | Print | Product List | Glossary On
Versions: 1 2 3 4 5 6 7 8 9 10 11 12 13 14 15 16 17 18 19 20 21 22 23 24 25 26 27
000
ASCA42 TJSJ 190210
RWRPR
PUERTO RICO/U.S. VIRGIN ISLANDS HOURLY WEATHER ROUNDUP
NATIONAL WEATHER SERVICE SAN JUAN PR
1000 PM AST WED JAN 18 2017

PRZ001>002-007>008-010-190300-
PUERTO RICO

CITY           SKY/WX    TMP DP  RH WIND       PRES   REMARKS
SAN JUAN LMM   PTCLDY    73  64  73 CALM      30.06S
AGUADILLA      CLEAR     68  63  83 SE3       30.08R
CEIBA          PTCLDY    66  64  94 CALM      30.08R
$$

VIZ001>002-190300-
U.S. VIRGIN ISLANDS

CITY           SKY/WX    TMP DP  RH WIND       PRES   REMARKS
CHARLOTTE AMA  PTCLDY    72  63  73 NE5       30.05R
CHRISTIANSTED  CLEAR     66  61  82 N5        30.06R
$$

HOURLY WEATHER ROUNDUP FOR THE NEWS MEDIA

CITY           SKY/WX    TMP DP  RH WIND       PRES   REMARKS
ORLANDO        CLEAR     72  59  63 NW6       30.11F
NEW YORK       CLOUDY    41  36  82 N8        30.04F
NEWARK         MOCLDY    40  35  83 N6        30.03F
CHICAGO        CLOUDY    36  32  85 SW10      30.06F WCI  28
HARTFORD       CLOUDY    40  38  93 CALM      30.00S
BOSTON         DRIZZLE   33  33 100 N6        30.04F FOG     WCI  28
DALLAS         CLOUDY    54  49  83 CALM      30.00S
PHILADELPHIA   CLOUDY    46  39  76 N3        30.05R
LOS ANGELES    CLOUDY    57  47  69 W15       30.14R
WASHINGTON DC  PTCLDY    44  33  65 NW5       30.09S



USA.gov is the U.S. government's official web portal to all federal, state and local government web resources and services.